Regional Weather Roundup
Issued by NWS Albany, NY

Home | Current Version | Previous Version | Text Only | Print | Product List | Glossary On
Versions: 1 2 3 4 5 6 7 8 9 10 11 12 13 14 15 16 17 18 19 20 21 22 23 24 25 26 27 28 29 30 31 32 33 34 35 36 37 38 39 40 41 42 43 44 45 46 47 48 49 50
000
ASUS41 KALY 210610
RWRALY

NEW YORK STATE HOURLY WEATHER ROUNDUP
NATIONAL WEATHER SERVICE ALBANY NY
200 AM EDT TUE APR 21 2015

NOTE: "FAIR" INDICATES FEW OR NO CLOUDS BELOW 12,000 FEET WITH NO
SIGNIFICANT WEATHER AND/OR NO OBSTRUCTIONS TO VISIBILITY.

NYZ032-033-038>043-046>054-057>066-NYZ062>081-210700-
EAST


CITY           SKY/WX    TMP DP  RH WIND       PRES   REMARKS
ALBANY         TSTM      52  48  86 NW9       29.59R FOG
GLENS FALLS    CLOUDY    49  44  83 N6        29.57F
POUGHKEEPSIE   LGT RAIN  55  52  89 NW6       29.58R
NEWBURGH       CLOUDY    54  54 100 NW12      29.59R FOG
MONTGOMERY     CLOUDY    54  50  87 CALM      29.57R
WHITE PLAINS   CLOUDY    53  53 100 SE5       29.56S FOG
ISLIP          CLOUDY    54  53  97 S12       29.56R FOG
NEW YORK CITY  CLOUDY    54  52  93 S6        29.56F
CENTRAL PARK   CLOUDY    52  52 100 CALM      29.60S FOG
$$

NYZ005>009-017-018-044>046-055-056-210700-
CENTRAL


CITY           SKY/WX    TMP DP  RH WIND       PRES   REMARKS
FULTON         CLOUDY    52  49  89 SW5       29.56F
SYRACUSE       LGT RAIN  51  51 100 CALM      29.55F
ROME           LGT RAIN  50  49  96 SE7       29.56F
ELMIRA         LGT RAIN  52  48  86 W6        29.57R
BINGHAMTON     LGT RAIN  50  50 100 SE9       29.52F
MONTICELLO     CLOUDY    48  48 100 CALM      29.60F
$$

NYZ026>034-041>043-210700-
NORTH


CITY           SKY/WX    TMP DP  RH WIND       PRES   REMARKS
WATERTOWN      CLOUDY    54  50  86 SW8G20    29.53F
FORT DRUM      NOT AVBL
MASSENA        LGT RAIN  48  46  93 NE7       29.54F
SARANAC LAKE   RAIN      49  46  90 S9        29.56R FOG
PLATTSBURGH    CLOUDY    46  41  82 SE8       29.59F
$$

NYZ001>004-010>016-019>021-210700-
WEST


CITY           SKY/WX    TMP DP  RH WIND       PRES   REMARKS
NIAGARA FALLS  LGT RAIN  42  38  85 S13       29.59R
BUFFALO        LGT RAIN  43  39  86 SW15      29.60R
DUNKIRK        MOCLDY    46  40  79 SW12      29.62S
JAMESTOWN      CLOUDY    45  36  70 W8        29.62S
WELLSVILLE     LGT RAIN  46  42  86 W13       29.60S
ROCHESTER      CLOUDY    50  43  77 SW16      29.57S
PENN YAN       CLOUDY    51  44  77 SW10      29.57S
$$

             KEY
       WCI = WIND CHILL INDEX
       VSB = VISIBILITY
       HX  = HEAT INDEX
$$


USA.gov is the U.S. government's official web portal to all federal, state and local government web resources and services.